Theta_e
348 350 350 348 346 343 339 336 333 326 328 337 338 344 344 346 348 349 345 346 343 342 339 339 339 340 343 346 347 346 345 345 344 345 345 347 349 352
352 352 348 349 348 351 342 342 338 333 328 336 337 342 348 344 349 345 345 349 345 341 339 337 338 339 340 341 343 343 342 342 342 342 343 343 345 347
351 352 350 350 348 349 352 349 343 340 334 336 342 345 349 349 350 347 348 348 348 341 339 338 336 337 338 338 338 338 339 339 339 340 341 341 342 344
352 350 352 355 351 350 350 347 348 349 342 339 344 344 344 347 348 348 352 356 351 349 342 338 335 334 333 333 333 333 334 334 335 336 336 339 340 341
354 354 353 353 350 351 348 347 347 348 346 344 342 346 349 351 350 348 353 355 356 349 340 339 338 334 332 330 328 327 326 327 327 329 330 332 335 339
355 354 355 354 352 352 354 353 353 351 349 348 347 346 345 349 348 346 344 348 349 356 352 346 343 341 334 329 328 328 324 322 321 322 323 325 328 332
353 354 354 353 352 351 356 354 354 351 351 349 347 345 343 341 342 346 346 348 348 349 349 354 357 357 356 339 336 334 328 324 321 319 319 319 321 326
353 353 355 351 350 344 343 344 353 352 350 349 346 344 342 344 347 347 346 342 343 352 354 355 355 354 356 355 336 334 328 325 322 320 319 317 318 321
354 353 353 356 349 353 344 339 338 337 342 349 345 345 345 346 346 346 347 348 347 354 352 350 354 352 356 345 330 328 325 323 322 321 319 316 316 317
354 354 354 353 351 349 350 351 350 348 347 345 344 348 350 351 351 353 352 350 353 354 353 347 351 350 351 334 328 325 321 318 318 319 317 314 313 312
350 351 353 353 344 337 348 347 348 352 349 335 337 337 338 338 344 352 352 347 347 343 353 349 347 343 345 336 327 324 320 316 313 315 315 313 310 311
346 348 337 347 336 331 346 348 345 347 347 350 348 339 334 340 335 344 350 347 344 344 351 349 345 341 335 335 326 324 325 317 311 310 313 311 309 322
346 346 349 330 323 321 325 346 344 346 344 347 350 352 354 354 356 342 343 345 343 347 353 351 341 342 336 334 325 323 321 322 319 314 307 307 309 320
349 350 348 328 322 321 323 328 327 328 345 347 347 346 347 349 353 357 358 353 356 356 354 351 347 343 336 329 325 322 322 323 320 316 314 309 310 313
354 346 333 325 316 316 318 322 322 332 340 342 344 346 349 353 355 355 358 360 358 357 352 351 348 345 337 332 323 319 318 322 320 317 317 321 320 320
339 344 331 331 330 337 334 324 326 335 339 341 344 349 353 354 353 355 353 354 350 348 352 352 349 344 337 335 326 320 320 320 320 320 319 321 322 322
342 348 347 346 347 347 343 347 337 339 344 349 350 350 351 351 352 355 353 347 346 342 344 344 345 343 341 332 324 323 320 322 323 321 320 319 322 322
337 347 346 347 347 346 345 343 351 345 349 351 353 353 352 351 353 353 352 350 347 348 346 339 338 336 335 334 332 327 324 322 322 322 323 320 320 323
345 345 347 348 348 349 349 349 347 353 356 353 352 353 353 350 347 349 348 347 346 347 347 343 338 335 328 323 329 327 327 322 324 322 324 324 322 324
347 346 348 350 352 353 353 353 353 353 352 352 352 352 352 349 349 347 346 345 345 346 345 344 339 336 333 331 326 327 317 324 324 324 323 326 326 322
348 350 351 352 352 353 355 353 352 352 352 353 355 354 353 351 348 347 345 329 335 344 342 341 343 334 340 335 327 323 321 313 325 325 325 324 323 320
346 348 347 347 348 349 351 355 353 351 352 352 351 350 350 352 350 348 348 343 341 341 341 345 340 335 332 329 327 325 322 318 312 315 321 324 324 317
329 324 323 319 317 319 320 326 347 349 349 350 349 348 347 345 346 346 344 343 342 338 335 333 334 333 333 332 328 328 327 321 318 315 316 310 312 315
Wind_Speed
4 3 2 2 3 2 2 3 5 1 3 4 2 3 5 4 5 6 6 11 17 18 17 16 18 20 19 18 18 18 19 19 19 19 19 20 20 18
3 4 3 2 3 2 2 1 3 4 2 3 3 2 3 3 4 6 8 13 16 18 18 18 20 21 20 21 21 21 19 20 21 19 19 21 20 20
5 4 6 5 3 2 1 2 2 2 3 4 3 3 2 3 5 6 6 6 6 15 17 19 21 21 21 20 23 21 22 24 23 17 21 23 22 17
7 6 6 4 6 4 2 4 3 2 4 4 2 3 3 6 6 6 9 7 7 11 15 18 17 19 19 22 20 20 22 22 20 21 24 20 25 17
8 7 7 6 6 4 4 4 3 3 3 3 4 2 4 4 5 4 5 6 6 12 13 16 17 17 17 14 14 16 17 17 15 18 19 24 24 16
7 7 7 7 7 7 5 6 4 4 3 3 3 4 4 5 2 3 4 2 3 3 6 9 10 5 9 11 12 14 16 16 15 15 15 17 13 11
7 7 8 9 11 9 5 6 6 5 4 4 4 2 3 3 3 3 3 3 5 4 4 5 4 4 5 5 7 9 12 13 14 10 11 9 10 15
10 8 7 10 12 14 14 12 8 6 6 4 3 4 6 4 3 3 4 3 5 4 1 8 3 5 4 4 7 5 8 8 7 7 10 9 11 15
12 10 8 9 9 7 11 15 15 15 14 10 9 8 8 6 4 5 6 6 5 8 2 6 2 4 4 5 12 13 12 11 8 6 7 10 12 14
11 12 12 12 8 8 8 9 10 10 10 8 10 12 9 8 8 11 10 6 5 5 2 5 1 3 2 6 12 14 13 13 11 8 4 9 10 13
11 12 11 11 12 13 7 8 7 8 8 13 12 13 16 16 11 3 7 4 7 4 3 3 1 1 2 3 3 10 11 9 11 8 2 7 9 13
8 9 14 12 12 14 12 13 12 14 7 7 5 6 11 11 17 11 9 8 6 3 2 2 1 3 4 3 2 3 4 9 9 10 5 8 13 8
10 9 10 16 17 15 17 14 15 13 9 6 6 5 5 5 5 6 8 7 4 5 4 2 3 2 2 3 2 2 3 3 4 5 8 7 8 6
12 11 11 15 19 21 15 18 17 8 4 4 4 5 5 5 7 6 8 8 7 8 6 5 3 3 2 2 2 1 4 4 4 4 4 7 11 12
12 12 11 12 11 9 15 17 9 7 9 8 9 8 6 6 7 5 4 5 4 4 4 5 4 4 3 3 2 1 2 3 3 4 3 3 4 5
11 9 7 8 9 6 3 4 5 6 8 8 8 7 4 4 4 4 3 3 2 2 3 5 5 5 2 2 4 2 3 3 2 2 2 2 3 3
13 9 7 6 8 8 5 5 5 6 7 7 5 5 4 4 4 3 2 3 3 3 3 3 4 5 3 5 2 3 4 3 5 4 3 4 4 5
6 9 9 9 10 9 9 9 9 10 8 7 7 7 7 6 5 3 3 4 4 6 4 3 4 2 1 3 8 4 4 4 5 7 4 6 6 7
7 9 9 9 9 9 9 8 8 8 9 7 5 6 5 4 4 3 3 3 4 5 4 4 4 4 4 5 3 8 5 4 7 7 7 7 5 8
7 8 9 8 8 9 8 6 7 6 7 6 6 6 5 4 3 3 4 5 5 6 5 4 5 8 8 7 5 3 8 7 7 8 8 6 5 6
5 6 6 6 6 5 6 5 6 6 5 4 5 6 6 5 4 5 6 9 6 5 6 6 8 16 6 4 1 2 3 10 12 9 6 6 5 3
2 3 4 6 8 7 5 5 5 5 5 5 4 4 4 4 4 5 5 5 5 6 6 6 4 6 4 6 7 5 3 3 0 2 10 14 7 6
7 7 6 8 9 9 11 13 9 3 2 3 4 4 4 4 4 4 4 5 5 4 4 3 3 3 8 9 8 5 6 7 6 5 5 8 8 8
Wind_Direction
236 252 269 282 332 325 174 132 141 43 311 314 352 271 257 224 217 196 209 215 227 235 234 232 233 235 234 234 234 230 231 231 228 225 224 226 226 226
231 250 262 273 271 354 292 170 151 154 197 220 276 273 281 275 243 205 222 224 229 234 238 237 240 241 235 236 232 228 230 231 230 229 229 228 227 224
230 219 246 246 264 292 16 15 295 173 205 294 249 235 273 248 273 244 253 254 248 234 240 240 242 246 246 241 238 230 228 226 226 219 235 234 232 224
223 223 242 235 258 248 226 240 242 228 176 249 278 301 298 291 270 282 277 263 246 252 249 250 247 249 248 241 242 232 235 233 225 225 228 234 238 220
205 209 221 216 233 242 239 240 233 250 213 197 266 255 269 274 290 279 258 259 258 260 273 277 266 255 256 253 244 240 239 248 227 234 229 228 233 203
220 217 215 209 217 231 237 238 249 268 271 264 268 264 238 283 250 266 300 312 293 290 278 285 316 319 271 251 244 242 241 247 240 234 230 239 234 208
228 222 227 220 212 213 218 230 222 234 242 249 270 292 281 295 274 285 292 290 295 263 301 303 330 322 309 274 264 258 254 255 246 239 235 224 188 196
228 235 228 224 230 229 231 225 204 213 224 207 227 239 261 257 261 263 280 297 309 272 88 297 321 295 293 331 34 352 321 291 287 229 219 199 191 196
217 226 234 239 223 226 236 238 241 235 230 239 245 246 261 250 258 270 267 259 252 271 256 284 300 293 304 57 61 54 40 20 359 268 201 178 187 184
206 212 219 229 225 216 232 243 243 244 238 229 231 250 250 251 232 255 260 257 273 279 210 275 251 280 323 82 70 64 46 20 356 349 213 177 183 165
218 218 216 222 220 213 212 236 251 255 253 242 234 227 234 241 245 260 260 260 279 269 234 197 317 302 323 105 74 65 52 33 6 359 180 153 143 145
223 224 216 216 206 217 229 242 252 253 241 253 256 254 245 250 248 231 248 251 260 297 267 158 344 39 323 101 63 27 37 27 41 22 82 131 142 156
226 226 228 220 227 225 217 233 237 250 245 234 249 250 252 251 253 208 214 212 211 230 220 135 185 177 196 281 124 38 42 38 42 36 54 127 149 141
223 226 227 207 218 228 227 233 240 229 223 228 231 243 250 256 261 243 225 212 214 219 180 172 193 176 196 290 274 59 48 44 50 47 55 86 87 98
226 226 213 202 206 223 234 237 223 213 228 233 241 245 231 237 245 254 264 236 228 197 167 178 171 175 172 202 199 196 90 41 52 73 78 98 113 129
237 227 188 183 203 202 204 201 203 205 203 216 223 229 225 226 230 225 228 205 189 269 220 197 192 171 197 209 153 169 145 148 118 95 97 79 112 162
213 225 219 217 236 237 231 213 196 202 208 213 203 213 228 231 236 223 178 144 193 215 235 190 195 191 189 153 173 186 160 146 159 148 147 189 208 192
189 207 216 222 228 230 229 228 212 204 206 206 210 215 220 217 212 188 159 194 232 252 235 164 157 133 52 277 184 182 161 161 167 167 171 195 216 209
200 210 212 211 222 224 222 217 216 206 195 196 200 213 209 196 178 185 201 201 240 252 247 169 173 175 180 219 277 208 162 160 165 175 191 197 208 212
200 195 206 208 213 217 220 202 193 191 198 206 203 201 195 191 169 190 203 211 221 239 235 184 191 197 203 213 185 232 189 146 178 192 202 207 230 230
209 218 207 218 230 217 203 195 185 199 197 191 217 195 183 172 196 201 206 217 213 225 228 215 211 203 199 104 119 237 236 238 180 177 176 198 208 213
264 293 354 5 350 316 250 204 199 188 184 190 203 193 175 164 194 199 211 228 211 231 238 250 203 145 155 175 210 202 199 194 21 255 191 172 174 207
42 74 92 70 41 30 15 4 318 264 196 185 185 204 198 198 206 204 206 223 228 229 236 244 193 175 187 189 199 209 193 184 178 197 223 228 254 217